{"data":{"norad_id":63958,"epoch":"2026-05-25T04:27:48.417120Z","epoch_age_seconds":49200,"freshness":"FRESH","line1":"1 63958U 25099G   26145.18597705  .00017807  00000+0  65577-3 0  9991","line2":"2 63958  42.9956 104.3628 0000669 257.4917 102.5860 15.27543162 59033","mean_motion":15.27543162,"eccentricity":6.69e-5,"inclination_deg":42.9956,"raan_deg":104.3628,"arg_perigee_deg":257.4917,"mean_anomaly_deg":102.586,"bstar":0.00065577,"rev_number":5903,"period_min":94.269022036315,"perigee_km":482.70038375136,"apogee_km":483.61842521028,"semimajor_km":6861.2964044808,"source":"CELESTRAK","updated_at":"2026-05-25T13:38:20.211927Z"}}